Stations météo

Publicité
Montauban, France (7540): Température de l'air & dewpoint: 15.07.2019 17:00:00 - 21.07.2019 17:00:00 (CEST)Montauban, France (7540): Température de l'air 5cm: 15.07.2019 17:00:00 - 21.07.2019 17:00:00 (CEST)Montauban, France (7540): Température de l'air -20cm & Température de l'air -100cm: 15.07.2019 17:00:00 - 21.07.2019 17:00:00 (CEST)Montauban, France (7540): Vitesse du vent & gusts: 15.07.2019 17:00:00 - 21.07.2019 17:00:00 (CEST)Montauban, France (7540): Direction du vent: 15.07.2019 17:00:00 - 21.07.2019 17:00:00 (CEST)Montauban, France (7540): reduced air pressure: 15.07.2019 17:00:00 - 21.07.2019 17:00:00 (CEST)Montauban, France (7540): visibility: 15.07.2019 17:00:00 - 21.07.2019 17:00:00 (CEST)Montauban, France (7540): Ensoleillement: 15.07.2019 17:00:00 - 21.07.2019 17:00:00 (CEST)Montauban, France (7540): Quantités de précipitations: 15.07.2019 17:00:00 - 21.07.2019 17:00:00 (CEST)
Date & Time tt [°C] td [°C] tt 5cm [°C] tt -20cm [°C] tt -100cm [°C] ff [km/h] ff [knt] fx [km/h] fx [knt] dd ppp [hPa] vv [km] sd [min] rr [mm]
21.07.2019 17:00:00 31,8 18,4 37,8 24,4 21,3 8 4 15 8 E 1019,6 20 55 0,0
21.07.2019 16:00:00 31,3 19,6 34,1 24,2 21,3 4 2 17 9 NNW 1020,0 20 40 0,0
21.07.2019 15:00:00 29,9 19,3 34,0 24,1 21,3 9 5 19 10 E 1020,5 20 44 0,0
21.07.2019 14:00:00 30,4 20,3 38,0 24,0 21,3 4 2 14 8 ENE 1021,0 20 60 0,0
21.07.2019 13:00:00 28,3 20,1 31,4 23,9 21,3 6 3 14 7 NNW 1021,2 20 44 0,0
21.07.2019 12:00:00 27,5 19,6 29,5 23,9 21,3 4 2 11 6 SSW 1021,5 20 22 0,0
21.07.2019 11:00:00 25,1 18,5 25,9 24,0 21,3 4 2 10 5 N 1021,5 20 0 0,0
21.07.2019 10:00:00 23,3 17,5 24,5 24,0 21,3 5 3 13 7 N 1021,4 20 0 0,0
21.07.2019 09:00:00 22,4 17,3 21,3 24,1 21,2 4 2 11 6 NNW 1021,3 20 0 0,0
21.07.2019 08:00:00 21,2 17,4 20,2 24,2 21,3 7 4 12 6 WNW 1021,1 20 0 0,0
21.07.2019 07:00:00 21,4 17,2 20,1 24,2 21,3 5 3 13 7 NW 1020,6 20 0 0,0
21.07.2019 06:00:00 21,9 17,3 20,4 24,3 21,3 4 2 13 7 WNW 1020,1 20 0 0,0
21.07.2019 05:00:00 22,3 17,2 20,5 24,4 21,3 6 3 12 6 N 1019,9 20 0 0,0
21.07.2019 04:00:00 22,9 17,1 21,2 24,4 21,3 7 4 16 8 N 1020,0 20 0 0,0
21.07.2019 03:00:00 23,3 17,5 21,7 24,5 21,3 9 5 18 10 N 1020,0 20 0 0,0
21.07.2019 02:00:00 24,0 19,3 22,1 24,6 21,3 5 3 10 5 E 1019,8 20 0 0,0
21.07.2019 01:00:00 24,6 19,7 22,5 24,6 21,3 6 3 19 10 S 1019,5 20 0 0,0
21.07.2019 00:00:00 25,4 19,8 23,9 24,6 21,3 13 7 19 11 S 1019,1 20 0 0,0
20.07.2019 23:00:00 26,6 19,5 25,5 24,6 21,2 10 5 17 9 S 1018,7 20 0 0,0
20.07.2019 22:00:00 27,3 19,4 25,8 24,5 21,2 7 4 13 7 S 1017,8 3,9 0 0,0
20.07.2019 21:00:00 27,7 19,2 26,6 24,5 21,3 9 5 19 10 SSE 1016,9 20 13 0,0
20.07.2019 20:00:00 28,9 19,2 29,1 24,4 21,2 8 5 21 12 SSE 1016,5 20 9 0,0
20.07.2019 19:00:00 29,0 19,0 30,2 24,3 21,3 16 8 25 14 SSE 1016,2 20 22 0,0
20.07.2019 18:00:00 29,9 19,3 31,9 24,2 21,2 13 7 22 12 S 1016,0 20 18 0,0
20.07.2019 17:00:00 28,9 19,5 31,9 24,1 21,2 16 9 23 13 SSE 1016,1 20 3 0,0
20.07.2019 16:00:00 29,1 19,7 32,9 24,0 21,3 16 8 29 16 SSE 1016,1 20 29 0,0
20.07.2019 15:00:00 28,5 20,0 32,2 23,9 21,2 16 9 36 19 S 1016,2 20 33 0,0
20.07.2019 14:00:00 26,2 20,3 26,6 23,9 21,2 15 8 26 14 S 1016,5 20 5 0,0
20.07.2019 13:00:00 24,0 19,7 25,2 24,0 21,2 6 3 13 7 SW 1016,7 20 0 0,0
20.07.2019 12:00:00 23,6 19,1 24,5 24,0 21,2 6 3 11 6 W 1016,7 20 0 0,0
20.07.2019 11:00:00 23,2 19,4 21,2 24,1 21,2 3 2 6 4 W 1016,2 20 0 0,0
20.07.2019 10:00:00 20,7 17,7 20,1 24,1 21,2 3 2 14 8 E 1016,2 20 0 0,0
20.07.2019 09:00:00 20,7 17,5 20,4 24,3 21,2 7 4 11 6 E 1015,6 20 0 0,0
20.07.2019 08:00:00 20,4 17,4 17,8 24,4 21,2 3 2 29 15 NW 1014,3 20 8 0,0
20.07.2019 07:00:00 19,2 16,6 17,2 24,5 21,2 16 9 25 13 SE 1012,9 18 0 0,6
20.07.2019 06:00:00 18,7 14,6 14,3 24,7 21,2 0 0 8 4 N 1012,8 20 0 0,0
20.07.2019 05:00:00 18,0 14,1 14,2 24,8 21,2 3 1 5 3 SSE 1012,4 20 0 0,0
20.07.2019 04:00:00 18,5 14,2 14,5 24,9 21,2 2 1 8 5 ESE 1012,4 20 0 0,0
20.07.2019 03:00:00 18,2 14,3 14,8 25,0 21,2 4 2 6 3 ESE 1012,5 20 0 0,0
20.07.2019 02:00:00 19,7 14,3 17,0 25,1 21,2 5 3 9 5 E 1012,6 20 0 0,0
20.07.2019 01:00:00 21,0 14,4 16,0 25,2 21,2 3 2 9 5 ENE 1012,8 20 0 0,0
20.07.2019 00:00:00 21,3 14,2 15,9 25,2 21,2 3 1 5 3 S 1012,8 20 0 0,0
19.07.2019 23:00:00 23,4 14,9 17,7 25,2 21,2 3 2 7 4 E 1012,6 20 0 0,0
19.07.2019 22:00:00 26,6 14,0 18,7 25,2 21,2 2 1 9 5 E 1012,2 9 8 0,0
19.07.2019 21:00:00 30,1 13,4 28,8 25,0 21,2 7 4 13 7 S 1012,2 20 60 0,0
19.07.2019 20:00:00 31,1 12,0 35,4 24,9 21,2 7 4 12 6 SSE 1012,2 20 60 0,0
19.07.2019 19:00:00 31,8 13,5 37,7 24,6 21,2 3 2 11 6 NNW 1012,5 20 60 0,0
19.07.2019 18:00:00 31,5 14,2 38,5 24,4 21,2 5 3 18 10 NW 1013,2 20 60 0,0
19.07.2019 17:00:00 30,7 14,3 38,5 24,1 21,2 9 5 24 13 NW 1013,8 20 60 0,0
19.07.2019 16:00:00 29,9 14,0 39,0 23,9 21,2 9 5 22 12 N 1014,7 20 60 0,0
19.07.2019 15:00:00 28,9 14,3 37,7 23,7 21,2 6 4 12 6 W 1015,4 20 60 0,0
19.07.2019 14:00:00 27,5 14,5 35,2 23,5 21,2 6 3 16 9 SSW 1016,2 20 60 0,0
19.07.2019 13:00:00 26,5 14,3 34,0 23,5 21,2 7 4 17 9 S 1016,9 20 60 0,0
19.07.2019 12:00:00 25,5 14,3 31,6 23,5 21,2 4 2 14 7 N 1017,5 20 60 0,0
19.07.2019 11:00:00 24,3 14,1 30,6 23,5 21,1 4 2 11 6 NE 1017,9 20 60 0,0
19.07.2019 10:00:00 22,1 14,5 25,5 23,6 21,2 4 2 8 4 N 1018,3 20 60 0,0
19.07.2019 09:00:00 19,7 14,9 19,9 23,8 21,2 4 2 11 6 WNW 1018,5 20 60 0,0
19.07.2019 08:00:00 17,8 14,5 16,0 23,9 21,2 6 4 16 9 WNW 1018,4 20 60 0,0
19.07.2019 07:00:00 17,0 13,9 12,3 24,0 21,2 6 3 10 5 W 1018,5 20 7 0,0
19.07.2019 06:00:00 16,3 13,4 12,1 24,1 21,2 3 1 5 3 ESE 1018,3 20 0 0,0
19.07.2019 05:00:00 17,3 13,2 12,6 24,3 21,2 0 0 6 3 N 1018,2 20 0 0,0
19.07.2019 04:00:00 18,4 13,7 15,4 24,4 21,2 5 3 13 7 WNW 1018,1 20 0 0,0
19.07.2019 03:00:00 19,1 13,9 17,0 24,5 21,2 8 4 16 9 WNW 1018,4 20 0 0,0
19.07.2019 02:00:00 19,8 13,9 18,1 24,6 21,1 11 6 18 10 WNW 1018,1 20 0 0,0
19.07.2019 01:00:00 20,9 14,1 19,1 24,7 21,2 11 6 19 10 W 1018,0 20 0 0,0
19.07.2019 00:00:00 22,0 13,9 19,3 24,7 21,2 7 4 19 10 W 1017,8 20 0 0,0
18.07.2019 23:00:00 22,7 12,9 17,1 24,7 21,2 8 4 13 7 WNW 1017,7 20 0 0,0
18.07.2019 22:00:00 24,7 12,3 20,6 24,7 21,2 4 2 19 10 NW 1017,1 19 8 0,0
18.07.2019 21:00:00 26,0 11,7 25,2 24,6 21,1 9 5 22 12 NW 1016,7 20 60 0,0
18.07.2019 20:00:00 26,8 11,3 28,8 24,5 21,2 14 7 29 16 NNW 1016,3 20 60 0,0
18.07.2019 19:00:00 27,0 11,1 31,1 24,3 21,2 15 8 35 19 NW 1016,2 20 60 0,0
18.07.2019 18:00:00 27,2 12,0 32,2 24,2 21,1 13 7 27 15 WNW 1016,4 18 60 0,0
18.07.2019 17:00:00 26,9 11,8 30,5 24,0 21,1 13 7 27 14 NNW 1016,8 20 53 0,0
18.07.2019 16:00:00 26,3 11,2 32,8 23,8 21,1 14 7 29 16 WNW 1017,3 20 60 0,0
18.07.2019 15:00:00 25,5 11,3 29,8 23,7 21,1 14 8 33 18 NNW 1017,5 20 49 0,0
18.07.2019 14:00:00 24,5 11,8 27,5 23,7 21,1 18 10 30 16 WNW 1017,9 20 46 0,0
18.07.2019 13:00:00 23,0 11,7 24,4 23,7 21,1 16 8 26 14 NW 1018,2 19 27 0,0
18.07.2019 12:00:00 22,0 13,1 21,9 23,8 21,1 10 5 19 11 NW 1018,7 20 15 0,0
18.07.2019 11:00:00 20,5 13,7 21,5 23,8 21,1 7 4 18 10 WNW 1018,7 20 0 0,0
18.07.2019 10:00:00 20,1 13,1 21,4 23,9 21,2 11 6 19 11 NW 1018,8 20 32 0,0
18.07.2019 09:00:00 19,6 14,4 19,1 24,0 21,1 8 4 14 8 NW 1018,5 20 33 0,0
18.07.2019 08:00:00 18,4 14,5 17,6 24,1 21,1 8 4 16 9 WNW 1018,7 20 12 0,0
18.07.2019 07:00:00 17,8 14,1 16,2 24,2 21,1 8 4 12 7 WNW 1018,2 20 8 0,0
18.07.2019 06:00:00 18,0 13,9 16,4 24,3 21,2 9 5 24 13 NW 1018,0 20 0 0,0
18.07.2019 05:00:00 19,0 14,0 18,6 24,4 21,1 16 9 29 16 NW 1017,7 20 0 0,0
18.07.2019 04:00:00 19,9 14,7 19,5 24,5 21,1 16 8 24 13 NW 1017,3 20 0 0,0
18.07.2019 03:00:00 20,8 13,2 19,0 24,6 21,1 11 6 23 12 NNW 1017,3 20 0 0,0
18.07.2019 02:00:00 20,8 12,0 18,8 24,7 21,1 9 5 18 10 WNW 1017,0 20 0 0,0
18.07.2019 01:00:00 22,2 11,9 20,2 24,8 21,1 9 5 22 12 NW 1016,5 20 0 0,0
18.07.2019 00:00:00 23,4 11,8 21,9 24,8 21,1 16 9 28 15 NW 1016,2 20 0 0,0
17.07.2019 23:00:00 24,9 12,5 23,2 24,8 21,1 16 9 27 14 NW 1015,7 20 0 0,0
17.07.2019 22:00:00 26,3 14,1 24,6 24,8 21,1 14 8 23 13 WNW 1014,5 20 9 0,0
17.07.2019 21:00:00 28,3 13,0 26,9 24,7 21,1 10 6 23 13 WNW 1013,7 20 42 0,0
17.07.2019 20:00:00 29,6 12,1 30,3 24,6 21,1 18 10 31 17 NW 1013,3 20 56 0,0
17.07.2019 19:00:00 30,6 12,0 32,6 24,4 21,1 16 8 31 17 WNW 1013,0 20 57 0,0
17.07.2019 18:00:00 30,8 11,2 34,3 24,2 21,1 15 8 35 19 NW 1013,3 20 60 0,0
17.07.2019 17:00:00 30,8 11,7 36,1 24,0 21,1 13 7 33 18 NW 1013,7 20 60 0,0
17.07.2019 16:00:00 30,3 10,3 31,7 23,8 21,1 16 8 31 17 NNW 1014,2 20 50 0,0
17.07.2019 15:00:00 29,5 12,4 32,3 23,6 21,1 18 10 31 17 WNW 1014,5 20 53 0,0
17.07.2019 14:00:00 29,2 13,0 34,3 23,5 21,1 14 7 29 16 WNW 1014,8 20 60 0,0
17.07.2019 13:00:00 28,1 13,6 33,7 23,5 21,1 10 5 24 13 WNW 1015,3 20 60 0,0
17.07.2019 12:00:00 26,3 15,0 29,7 23,5 21,1 8 4 16 9 W 1015,5 20 60 0,0
17.07.2019 11:00:00 23,9 14,3 28,0 23,5 21,1 9 5 15 8 W 1015,7 20 60 0,0
17.07.2019 10:00:00 22,0 14,4 21,9 23,6 21,1 4 2 16 9 W 1015,9 20 51 0,0
17.07.2019 09:00:00 19,8 13,9 20,6 23,7 21,1 11 6 17 9 NW 1016,1 20 60 0,0
17.07.2019 08:00:00 19,1 13,7 16,5 23,9 21,1 8 4 15 8 W 1016,0 20 60 0,0
17.07.2019 07:00:00 17,8 13,3 12,4 24,0 21,1 5 3 11 6 WSW 1015,9 20 9 0,0
17.07.2019 06:00:00 18,3 12,7 13,5 24,1 21,1 0 0 8 5 N 1015,4 20 0 0,0
17.07.2019 05:00:00 18,5 12,7 13,0 24,3 21,1 3 2 9 5 SW 1015,3 20 0 0,0
17.07.2019 04:00:00 17,0 12,3 12,7 24,4 21,1 5 3 8 4 SW 1015,2 20 0 0,0
17.07.2019 03:00:00 17,8 11,8 12,9 24,6 21,1 0 0 3 2 N 1015,3 20 0 0,0
17.07.2019 02:00:00 18,5 12,0 13,0 24,6 21,1 0 0 6 4 N 1015,5 20 0 0,0
17.07.2019 01:00:00 20,1 12,3 14,3 24,8 21,1 3 1 4 2 SE 1015,5 19 0 0,0
17.07.2019 00:00:00 20,7 12,1 14,7 24,8 21,1 2 1 5 3 WSW 1015,7 20 0 0,0
16.07.2019 23:00:00 24,3 11,6 17,1 24,8 21,1 4 2 10 5 WNW 1015,3 20 0 0,0
16.07.2019 22:00:00 26,0 9,8 21,4 24,8 21,1 7 4 12 6 WNW 1015,0 18 10 0,0
16.07.2019 21:00:00 28,8 8,5 27,2 24,7 21,1 9 5 23 12 NW 1014,7 20 60 0,0
16.07.2019 20:00:00 30,2 8,6 32,5 24,5 21,1 9 5 22 12 NNW 1014,4 20 60 0,0
16.07.2019 19:00:00 30,7 10,1 34,9 24,3 21,1 10 5 22 12 NW 1014,1 20 60 0,0
16.07.2019 18:00:00 30,9 10,3 36,2 24,1 21,1 13 7 22 12 WNW 1014,3 20 60 0,0
16.07.2019 17:00:00 30,7 9,6 32,8 23,9 21,1 10 5 23 13 W 1014,9 19 53 0,0
16.07.2019 16:00:00 29,9 9,9 34,3 23,7 21,1 6 3 21 11 NNW 1015,3 20 54 0,0
16.07.2019 15:00:00 29,4 11,0 33,2 23,5 21,1 8 4 25 14 WNW 1015,6 20 60 0,0
16.07.2019 14:00:00 27,8 11,4 31,3 23,4 21,1 6 4 17 9 SW 1016,2 20 39 0,0
16.07.2019 13:00:00 27,7 12,1 33,7 23,3 21,1 6 3 18 10 NW 1016,3 20 58 0,0
16.07.2019 12:00:00 26,1 12,5 32,1 23,3 21,1 6 4 16 9 WNW 1016,8 20 60 0,0
16.07.2019 11:00:00 24,4 13,3 29,5 23,4 21,1 3 2 11 6 N 1016,8 20 60 0,0
16.07.2019 10:00:00 22,1 13,2 24,5 23,5 21,1 3 2 9 5 NW 1017,2 20 60 0,0
16.07.2019 09:00:00 19,5 12,5 19,7 23,6 21,1 6 3 12 6 WNW 1017,3 20 60 0,0
16.07.2019 08:00:00 17,5 12,2 12,6 23,8 21,1 6 3 9 5 W 1017,2 20 60 0,0
16.07.2019 07:00:00 14,3 11,6 9,6 24,0 21,1 0 0 4 2 N 1017,1 20 10 0,0
16.07.2019 06:00:00 14,6 11,4 10,0 24,1 21,1 0 0 6 3 N 1016,7 20 0 0,0
16.07.2019 05:00:00 15,5 10,9 10,5 24,3 21,1 4 2 6 3 E 1016,5 20 0 0,0
16.07.2019 04:00:00 16,0 11,4 11,1 24,4 21,1 0 0 4 2 N 1016,8 20 0 0,0
16.07.2019 03:00:00 17,2 11,5 11,5 24,5 21,1 0 0 4 2 N 1016,8 20 0 0,0
16.07.2019 02:00:00 18,1 11,4 12,6 24,7 21,1 2 1 5 3 WSW 1016,9 20 0 0,0
16.07.2019 01:00:00 20,5 11,4 14,9 24,7 21,0 0 0 11 6 N 1016,7 20 0 0,0
16.07.2019 00:00:00 22,4 9,9 15,5 24,8 21,1 5 3 10 5 N 1016,3 20 0 0,0
15.07.2019 23:00:00 24,1 9,7 20,2 24,8 21,0 5 3 12 6 NNW 1016,0 20 0 0,0
15.07.2019 22:00:00 25,6 9,4 21,8 24,8 21,1 6 3 18 10 NNW 1015,4 20 10 0,0
15.07.2019 21:00:00 27,6 8,9 26,7 24,7 21,1 10 6 22 12 NNW 1014,8 20 60 0,0
15.07.2019 20:00:00 28,8 8,5 31,4 24,6 21,0 14 7 29 16 NNW 1014,3 20 60 0,0
15.07.2019 19:00:00 29,2 8,3 33,2 24,5 21,1 13 7 37 20 NNW 1014,0 20 60 0,0
15.07.2019 18:00:00 29,2 8,3 34,8 24,2 21,0 14 7 32 17 N 1013,9 20 60 0,0
15.07.2019 17:00:00 29,2 8,8 34,6 24,1 21,1 14 7 33 18 NNW 1013,8 20 60 0,0

tt = Température de l'air
td = dewpoint
tt 5cm = Température de l'air 5cm
tt -20cm = Température de l'air -20cm
tt -100cm = Température de l'air -100cm
ff = Vitesse du vent
fx = gusts
dd = Direction du vent
ppp = reduced air pressure
vv = visibility
sd = Ensoleillement
rr = Quantités de précipitations

stations d'obs. à proximité